Flag for Germany Weather past 2 weeks in Geesthacht, Schleswig-Holstein, Germany

Now
84 °F

Passing clouds.


Feels Like: 82 °F
Forecast: 69 / 90 °F
Wind: 14 mph from Southeast

Location: Hamburg-Fuhlsbuettel

Current Time: Jul 2, 2015 at 8:44:44 PM

Latest Report: Jul 2, 2015 at 8:20 PM


Visibility: N/A

Pressure: 30.15 "Hg

Humidity: 29%

Dew point: 48 °F

Location of GeesthachtLocation

Historic Weather in Geesthacht — Graph

°F

Geesthacht temperature yesterday

Maximum temperature yesterday: 82 °F (at 3:20 PM)
Minimum temperature yesterday: 54 °F (at 3:20 AM)
Average temperature yesterday: 70 °F

Past Weeks' High & Low Weather Summary

 TemperatureHumidityPressure
High90 °F (Jul 2, 3:20 PM)100% (Jun 18, 2:50 AM)30.24 "Hg (Jun 18, 2:50 AM)
Low48 °F (Jun 19, 2:20 AM)26% (Jul 2, 4:20 PM)29.62 "Hg (Jun 23, 2:50 AM)
Average61 °F74%30.01 "Hg
* Reported Jun 17 7:20 PM — Jul 2 7:20 PM, Geesthacht, Weather by CustomWeather, © 2015

Note: Actual official high and low records may vary slightly from our data, if they occured in-between our weather recording intervals... More about our weather records

Advertising

Geesthacht weather history for previous 24 hours

 ConditionsComfort  
Time TempWeatherWind HumidityBarometerVisibility
7:20 PM
Thu, Jul 2
88 °FSunny.17 mph27%30.15 "Hg10 mi
6:50 PM88 °FSunny.16 mph27%30.15 "Hg10 mi
6:20 PM88 °FSunny.17 mph27%30.15 "Hg10 mi
5:50 PM90 °FPassing clouds.16 mph26%30.15 "HgN/A
5:20 PM90 °FPassing clouds.17 mph26%30.15 "HgN/A
4:50 PM90 °FPassing clouds.16 mph26%30.15 "HgN/A
4:20 PM90 °FPassing clouds.14 mph26%30.15 "HgN/A
3:50 PM90 °FPassing clouds.15 mph27%30.15 "HgN/A
3:20 PM90 °FPassing clouds.18 mph27%30.15 "HgN/A
2:50 PM88 °FPassing clouds.16 mph27%30.18 "HgN/A
2:20 PM88 °FPassing clouds.17 mph29%30.18 "HgN/A
1:50 PM86 °FSunny.18 mph31%30.18 "Hg10 mi
1:20 PM88 °FPassing clouds.17 mph29%30.18 "HgN/A
12:50 PM86 °FSunny.21 mph31%30.18 "Hg10 mi
12:20 PM84 °FPassing clouds.16 mph31%30.18 "HgN/A
11:50 AM82 °FPassing clouds.18 mph35%30.18 "HgN/A
11:20 AM81 °FPassing clouds.20 mph39%30.18 "HgN/A
10:50 AM79 °FSunny.18 mph39%30.18 "Hg10 mi
10:20 AM79 °FSunny.16 mph42%30.18 "Hg10 mi
9:50 AM77 °FPassing clouds.16 mph44%30.18 "HgN/A
9:20 AM75 °FPassing clouds.16 mph47%30.21 "HgN/A
8:50 AM73 °FSunny.14 mph50%30.21 "Hg10 mi
8:20 AM72 °FPassing clouds.13 mph57%30.21 "HgN/A
7:50 AM72 °FPassing clouds.10 mph57%30.21 "HgN/A
7:20 AM68 °FSunny.12 mph64%30.21 "Hg10 mi
6:50 AM68 °FSunny.12 mph64%30.21 "Hg10 mi
6:20 AM66 °FSunny.10 mph68%30.18 "Hg10 mi
5:50 AM64 °FClear.12 mph78%30.18 "Hg10 mi
5:20 AM64 °FClear.13 mph78%30.18 "Hg10 mi
4:50 AM64 °FClear.13 mph78%30.18 "Hg10 mi
4:20 AM64 °FClear.13 mph78%30.18 "Hg10 mi
3:50 AM64 °FClear.9 mph73%30.18 "Hg10 mi
3:20 AM64 °FClear.8 mph73%30.21 "Hg10 mi
2:50 AM66 °FClear.9 mph68%30.21 "Hg10 mi
2:20 AM66 °FClear.9 mph64%30.21 "Hg10 mi
1:50 AM68 °FClear.10 mph56%30.21 "Hg10 mi
1:20 AM68 °FPassing clouds.10 mph56%30.18 "HgN/A
12:50 AM70 °FClear.12 mph53%30.18 "Hg10 mi
11:50 PM
Wed, Jul 1
72 °FClear.10 mph50%30.18 "Hg10 mi
11:20 PM72 °FClear.10 mph50%30.18 "Hg10 mi
10:50 PM73 °FSunny.10 mph50%30.18 "Hg10 mi
10:20 PM73 °FSunny.10 mph50%30.18 "Hg10 mi
9:50 PM75 °FSunny.10 mph47%30.15 "Hg10 mi
9:20 PM77 °FSunny.9 mph42%30.15 "Hg10 mi
8:50 PM79 °FSunny.10 mph37%30.15 "Hg10 mi
8:20 PM79 °FPassing clouds.12 mph34%30.15 "HgN/A
Weather by CustomWeather, © 2015

See weather overviewHow to use our weather pages